This is the latest recevied weather packets stored in our database for station/object IK6ZNK-3. If no packets are shown the sender has not sent any weather packets the latest 10 day(s).
| Time | Temp. | Humidity | Pressure | Rain* | Wind** | Luminosity | Snow |
|---|---|---|---|---|---|---|---|
| 1777828806 | 19.44° C | 50% | 1009.5 hPa | 0 mm | - | - | - |
| 1777828206 | 19.44° C | 48% | 1009.7 hPa | 0 mm | - | - | - |
| 1777827606 | 19.44° C | 50% | 1009.5 hPa | 0 mm | - | - | - |
| 1777827006 | 19.44° C | 50% | 1009.7 hPa | 0 mm | - | - | - |
| 1777826407 | 20.56° C | 47% | 1009.6 hPa | 0 mm | - | - | - |
| 1777825807 | 21.11° C | 45% | 1009.5 hPa | 0 mm | - | - | - |
| 1777825208 | 21.11° C | 46% | 1009.8 hPa | 0 mm | - | - | - |
| 1777824608 | 20.56° C | 45% | 1009.8 hPa | 0 mm | - | - | - |
| 1777824008 | 20.56° C | 46% | 1009.5 hPa | 0 mm | - | - | - |
| 1777823411 | 20.56° C | 45% | 1009.8 hPa | 0 mm | - | - | - |
| 1777822809 | 21.11° C | 45% | 1009.7 hPa | 0 mm | - | - | - |
| 1777822207 | 21.67° C | 46% | 1009.8 hPa | 0 mm | - | - | - |
| 1777821607 | 21.11° C | 46% | 1009.7 hPa | 0 mm | - | - | - |
| 1777821007 | 21.11° C | 44% | 1009.9 hPa | 0 mm | - | - | - |
| 1777820407 | 21.67° C | 45% | 1009.8 hPa | 0 mm | - | - | - |
| 1777819807 | 21.67° C | 45% | 1009.8 hPa | 0 mm | - | - | - |
| 1777819207 | 21.67° C | 43% | 1009.8 hPa | 0 mm | - | - | - |
| 1777818607 | 21.11° C | 43% | 1009.9 hPa | 0 mm | - | - | - |
| 1777818006 | 21.67° C | 43% | 1010 hPa | 0 mm | - | - | - |
| 1777817408 | 21.67° C | 42% | 1010.2 hPa | 0 mm | - | - | - |
| 1777816810 | 22.22° C | 43% | 1010.4 hPa | 0 mm | - | - | - |
| 1777816209 | 21.67° C | 43% | 1010.3 hPa | 0 mm | - | - | - |
| 1777815611 | 22.78° C | 42% | 1010.3 hPa | 0 mm | - | - | - |
| 1777815011 | 22.22° C | 42% | 1010.5 hPa | 0 mm | - | - | - |
| 1777814409 | 21.67° C | 40% | 1010.7 hPa | 0 mm | - | - | - |
* Rain latest hour (hover to see other rain measurements)
** Current wind speed in m/s (hover to see current wind gust speed)